sat.trackr.live / text

‹ back to catalog

STARLINK-30196

NORAD 57448 · 2023-105U

PAYLOAD ACTIVE UNKNOWN

§ Identity

Operator
Country
US
Launch date
2023-07-24
Launch site
AFETR
Launch vehicle
Mass (kg)
RCS (m²)

Purposes: comms

External: N2YO · Heavens-Above · Gunter

§ Orbital elements

Epoch: 2026-09-20T08:14:53.326464Z

Period
94.27 min
Inclination
43.0057°
Eccentricity
0.0001529
Mean motion
15.27587283 rev/d
Perigee alt
482.0 km
Apogee alt
484.1 km
Semi-major
6,861.2 km
B*
2.7969e-5
RAAN
243.7849°
Arg perigee
279.2786°
Mean anomaly
80.7892°
Rev number
17,515

§ Raw data

STARLINK-301961 57448U 23105U   26263.34367276  .00000508  00000+0  27969-4 0  99952 57448  43.0057 243.7849 0001529 279.2786  80.7892 15.27587283175155

JSON: /api/v1/satellites/57448 · /tle

For live sub-satellite position, see the globe view (requires WebGL).

§ Visibility from observer

Set your observer location to see the next 7 days of passes ≥ 10°. The values pass through the URL so the page stays shareable.

No JS? Fill the form by hand. The geolocation button needs JavaScript.